[[{"header":{"parameterUnit":"m.s-1","parameterCategory":1,"la1":30.2991,"la2":30.254,"lo1":-89.0895,"lo2":-89.0444,"dy":0.0017,"dx":0.0017,"nx":28,"ny":28,"refTime":"2025-06-10T21:00:00:Z","depth":0,"parameterNumber":2,"parameterNumberName":"U-component_of_WINDS"},"data":[0,0,0,0,0,0,0,0,0,0,0,0,0,0,0,0,0,0,0,0,0,0,0,0,0,0,0,0,0,0,0,0,0,0,0,0,0,0,0,0,0,0,0,0,0,0,0,0,0,0,0,0,0,0,0,0,0,0,0.1245,0.1245,0,0.1279,0.128,0.128,0.1275,0.1274,0.1274,0.1273,0.1308,0.1309,0.131,0,0,0,0,0,0,0,0,0,0,0,0,0,0.1173,0.1174,0.1245,0.1246,0.1246,0.1279,0.128,0.128,0.1275,0.1274,0.1273,0.1273,0.1307,0.1309,0.1311,0,0,0,0,0,0,0,0,0,0,0,0,0,0.1205,0.1175,0.1245,0.1247,0.1248,0.1279,0.128,0.128,0.1275,0.1274,0.1273,0.1272,0.1307,0.1309,0.1311,0.1342,0,0,0.1318,0.1319,0,0,0,0,0,0,0,0,0.1204,0.1208,0.1246,0.1247,0.1248,0.1272,0.1267,0.1301,0.1275,0.1265,0.1273,0.1272,0.1296,0.1299,0.1308,0.1344,0.1345,0.1318,0.1319,0.132,0.1321,0,0,0,0,0,0,0,0.1201,0.1207,0.1259,0.1247,0.1248,0.1246,0.1249,0.1273,0.1285,0.1265,0.1265,0.1269,0.1297,0.1306,0.1309,0.1346,0.1318,0.132,0.1321,0.1322,0.1406,0.1407,0,0,0,0,0,0,0.1199,0.1205,0.1258,0.126,0.1223,0.1248,0.1252,0.1265,0.1285,0.1287,0.127,0.1269,0.1302,0.1306,0.131,0.1346,0.132,0.1322,0.1323,0.1406,0.1407,0.1408,0,0,0,0,0,0,0.1197,0.1203,0.1256,0.1232,0.1239,0.125,0.1265,0.1266,0.1275,0.1288,0.129,0.1277,0.1302,0.1307,0.1334,0.1347,0.1323,0.1325,0.1404,0.1406,0.1407,0.142,0,0,0,0,0,0,0.1195,0.1203,0.1216,0.1232,0.124,0.128,0.1266,0.1267,0.1279,0.1278,0.1296,0.1298,0.1301,0.133,0.1336,0.135,0.1327,0.1403,0.1405,0.1407,0.1418,0.1421,0.1424,0,0,0,0,0,0.1192,0.1218,0.1216,0.1223,0.1256,0.1281,0.1285,0.1289,0.128,0.1292,0.13,0.1297,0.1345,0.1333,0.1339,0.1354,0.1402,0.1405,0.1407,0.1417,0.1421,0.1424,0,0,0,0,0,0,0.1203,0.1221,0.1219,0.1251,0.1264,0.128,0.1296,0.1294,0.131,0.1309,0.1313,0.1317,0.1344,0.1352,0.1338,0.1384,0.1372,0.1376,0.1378,0.1382,0.1385,0.1382,0.1329,0,0,0,0,0,0.1209,0.1228,0.1242,0.1269,0.1276,0.1285,0.1296,0.1298,0.1312,0.1318,0.1328,0.1341,0.1359,0.1371,0.1388,0.1419,0.1422,0.1432,0.1435,0.1438,0.144,0.1455,0.1459,0.1414,0.1414,0.1414,0,0,0.1222,0.1234,0.1246,0.1272,0.1283,0.1301,0.129,0.1311,0.1324,0.1321,0.1347,0.1354,0.1369,0.1398,0.1411,0.1405,0.1453,0.144,0.1442,0.1444,0.1458,0.1462,0.1466,0.1416,0.1416,0.1415,0,0,0.1255,0.1266,0.1289,0.13,0.1316,0.1321,0.1326,0.1342,0.1347,0.1372,0.1369,0.1385,0.1417,0.1427,0.1436,0.147,0.1467,0.1476,0.1492,0.1506,0.1509,0.1513,0.1523,0.1527,0.1479,0.1479,0.1479,0,0.1269,0.1298,0.1301,0.1322,0.1332,0.1329,0.1351,0.1361,0.1382,0.1389,0.1383,0.142,0.1431,0.146,0.1468,0.1477,0.1482,0.1474,0.1509,0.1512,0.1515,0.1525,0.1529,0.148,0.1479,0.1479,0.1479,0,0.1313,0.1333,0.1349,0.1368,0.1381,0.1402,0.1408,0.142,0.142,0.1425,0.145,0.1462,0.1481,0.1488,0.1489,0.1518,0.1514,0.1508,0.1496,0.152,0.153,0.1534,0.1481,0.1481,0.148,0.148,0,0,0.1355,0.1374,0.138,0.1388,0.1404,0.1419,0.144,0.1458,0.1467,0.1481,0.1497,0.1523,0.1517,0.1528,0.1529,0.1542,0.1566,0.1534,0.1535,0.1539,0.1596,0.16,0.1604,0.1564,0.1565,0.1565,0.1594,0,0.1388,0.1424,0.1427,0.1459,0.1476,0.1472,0.149,0.1501,0.1506,0.1521,0.1526,0.1544,0.1536,0.1542,0.1554,0.156,0.1577,0.1558,0.1578,0.1579,0.1574,0.161,0.1614,0.1641,0.1598,0.1599,0.16,0,0.1433,0.1447,0.1481,0.1492,0.15,0.1516,0.1531,0.1545,0.1557,0.156,0.1571,0.157,0.1589,0.1577,0.1603,0.159,0.1598,0.1602,0.1603,0.1605,0.159,0.1611,0.165,0.1654,0.1606,0.1605,0.1605,0,0.1458,0.1486,0.1509,0.1516,0.1531,0.1541,0.1548,0.1559,0.1569,0.1582,0.1589,0.1604,0.1612,0.1624,0.1627,0.1618,0.1652,0.164,0.1654,0.1654,0.1662,0.1661,0.1701,0.1668,0.1668,0.1668,0.1668,0,0.1495,0.1515,0.152,0.1535,0.1557,0.1559,0.158,0.1586,0.1596,0.161,0.1608,0.1621,0.1625,0.1638,0.1641,0.1661,0.1665,0.1667,0.1667,0.1667,0.1666,0.1672,0.167,0.1669,0.1669,0.1668,0.1668,0,0.1527,0.1532,0.1556,0.1567,0.1571,0.1586,0.1596,0.1609,0.1613,0.1631,0.1635,0.1642,0.1657,0.1661,0.1681,0.1682,0.1706,0.1705,0.1701,0.1701,0.1714,0.1713,0.1759,0.1765,0.1728,0.1729,0.1729,0,0.155,0.1566,0.1578,0.1587,0.1594,0.1609,0.1619,0.1621,0.1631,0.1644,0.1655,0.1671,0.1683,0.1709,0.1715,0.1729,0.1727,0.1742,0.1729,0.1728,0.1726,0.1725,0.1726,0.1745,0.1745,0.1746,0.1746,0,0.159,0.159,0.1604,0.1618,0.163,0.1641,0.1652,0.1659,0.1662,0.1674,0.1689,0.1699,0.1718,0.1733,0.1746,0.1752,0.1749,0.175,0.1754,0.1753,0.175,0.1751,0.1707,0.1749,0.1749,0.1748,0.1748,0.1748,0.1617,0.163,0.164,0.1655,0.1663,0.1672,0.1684,0.1689,0.1703,0.1718,0.1718,0.1735,0.1744,0.1763,0.1769,0.1782,0.1777,0.1783,0.1784,0.1785,0.1786,0.1748,0.1785,0.1784,0.1784,0.1784,0.1784,0,0.1656,0.1662,0.1675,0.1689,0.1701,0.1696,0.1707,0.1717,0.1732,0.1741,0.1753,0.177,0.1784,0.179,0.1804,0.1812,0.1811,0.1816,0.1815,0.1816,0.179,0.1785,0.1816,0.1816,0.1816,0.1816,0.1816,0.1816,0.1677,0.1698,0.1699,0.1723,0.1728,0.1745,0.1751,0.1759,0.1766,0.1786,0.1797,0.1801,0.1808,0.1822,0.1834,0.1835,0.184,0.1845,0.1846,0.1821,0.1818,0.1815,0.181,0.1846,0.1846,0.187,0.1871,0.1871]},{"header":{"parameterUnit":"m.s-1","parameterCategory":1,"la1":30.2991,"la2":30.254,"lo1":-89.0895,"lo2":-89.0444,"dy":0.0017,"dx":0.0017,"nx":28,"ny":28,"refTime":"2025-06-10T21:00:00:Z","depth":0,"parameterNumber":3,"parameterNumberName":"V-component_of_WINDS"},"data":[0,0,0,0,0,0,0,0,0,0,0,0,0,0,0,0,0,0,0,0,0,0,0,0,0,0,0,0,0,0,0,0,0,0,0,0,0,0,0,0,0,0,0,0,0,0,0,0,0,0,0,0,0,0,0,0,0,0,3.0358,3.0358,0,3.0338,3.0338,3.0338,3.0299,3.0298,3.0298,3.0297,3.0276,3.0276,3.0276,0,0,0,0,0,0,0,0,0,0,0,0,0,3.0362,3.0362,3.0358,3.0358,3.0358,3.0338,3.0338,3.0338,3.0299,3.0298,3.0297,3.0296,3.0276,3.0276,3.0276,0,0,0,0,0,0,0,0,0,0,0,0,0,3.0353,3.0362,3.0358,3.0336,3.0334,3.0338,3.0338,3.0338,3.0299,3.0298,3.0297,3.0296,3.0275,3.0276,3.0276,3.03,0,0,3.0277,3.0277,0,0,0,0,0,0,0,0,3.0353,3.0353,3.034,3.0338,3.0335,3.032,3.0331,3.0325,3.03,3.0313,3.0297,3.0295,3.0291,3.029,3.0289,3.0299,3.0298,3.0277,3.0277,3.0277,3.0277,0,0,0,0,0,0,0,3.0354,3.0353,3.035,3.034,3.0337,3.0327,3.0324,3.033,3.0308,3.0311,3.0308,3.0307,3.029,3.0289,3.0288,3.0298,3.0277,3.0277,3.0277,3.0277,3.0324,3.0326,0,0,0,0,0,0,3.0358,3.0354,3.0351,3.035,3.0342,3.0328,3.0325,3.0326,3.0308,3.0305,3.0308,3.0305,3.0289,3.0288,3.0287,3.0312,3.0277,3.0277,3.0277,3.0323,3.0325,3.0326,0,0,0,0,0,0,3.0358,3.0358,3.0352,3.0351,3.035,3.0329,3.0331,3.0326,3.0325,3.0306,3.0301,3.0311,3.0288,3.0287,3.0297,3.0311,3.0277,3.0277,3.0322,3.0324,3.0325,3.0365,0,0,0,0,0,0,3.0359,3.0358,3.0368,3.0352,3.035,3.0362,3.0331,3.0327,3.0326,3.0322,3.0307,3.0304,3.0287,3.0297,3.0297,3.0311,3.0277,3.0321,3.0323,3.0325,3.0362,3.0367,3.0372,0,0,0,0,0,3.0359,3.038,3.0369,3.0368,3.0361,3.0363,3.0362,3.0343,3.0327,3.0336,3.0323,3.0304,3.031,3.0298,3.0298,3.0312,3.032,3.0322,3.0325,3.036,3.0366,3.0372,0,0,0,0,0,0,3.0399,3.0378,3.0365,3.0381,3.0374,3.0357,3.0367,3.0351,3.0348,3.0345,3.0321,3.0317,3.033,3.0322,3.0309,3.0334,3.0312,3.0314,3.0338,3.0344,3.0349,3.0351,3.0278,0,0,0,0,0,3.0409,3.0413,3.0394,3.0411,3.0408,3.0389,3.0389,3.0374,3.0366,3.0363,3.0351,3.0343,3.0343,3.0343,3.0342,3.0361,3.0356,3.0371,3.0376,3.038,3.0382,3.039,3.0395,3.0334,3.0334,3.0334,0,0,3.0431,3.042,3.0424,3.0419,3.0412,3.0415,3.0386,3.0392,3.0394,3.0364,3.0372,3.0363,3.0352,3.0366,3.0372,3.036,3.0398,3.0383,3.0387,3.0387,3.0393,3.0399,3.0404,3.0336,3.0336,3.0335,0,0,3.0473,3.0466,3.0478,3.0471,3.0461,3.0448,3.0451,3.0435,3.0428,3.0436,3.0412,3.0415,3.0415,3.0408,3.0405,3.0443,3.0425,3.0444,3.047,3.0478,3.0482,3.0486,3.0498,3.0503,3.0446,3.0446,3.0446,0,3.0502,3.0507,3.0486,3.0493,3.049,3.0463,3.0474,3.0469,3.0459,3.0457,3.0445,3.0444,3.0435,3.0446,3.0455,3.0454,3.0456,3.0445,3.0483,3.0487,3.0491,3.0502,3.0507,3.0449,3.0448,3.0448,3.0448,0,3.0542,3.0546,3.0557,3.0547,3.0546,3.0555,3.0535,3.0536,3.0522,3.051,3.0517,3.0506,3.0501,3.0503,3.0489,3.0511,3.0504,3.0488,3.0465,3.0499,3.0509,3.0513,3.0452,3.0451,3.045,3.045,0,0,3.0608,3.0586,3.059,3.0585,3.0571,3.0573,3.0581,3.0576,3.0577,3.0571,3.0575,3.0576,3.056,3.0557,3.0542,3.0549,3.0577,3.0531,3.053,3.0539,3.0599,3.061,3.0615,3.0565,3.0566,3.0567,3.0599,0,3.0645,3.0657,3.0638,3.0653,3.0656,3.0629,3.0635,3.0627,3.0616,3.0616,3.0603,3.0603,3.0583,3.0581,3.0586,3.0573,3.0589,3.057,3.0568,3.0568,3.057,3.0621,3.0633,3.0664,3.0603,3.0604,3.0604,0,3.0691,3.0686,3.0702,3.0686,3.0686,3.0692,3.0685,3.0686,3.0675,3.0666,3.0662,3.0644,3.0649,3.0628,3.0633,3.0621,3.0619,3.0612,3.0613,3.0611,3.0587,3.0619,3.0674,3.0678,3.061,3.061,3.0609,0,3.0735,3.0733,3.0742,3.0738,3.072,3.0724,3.0717,3.0705,3.0703,3.0698,3.0696,3.0691,3.0688,3.0684,3.0665,3.0652,3.0672,3.065,3.0664,3.0664,3.0668,3.0668,3.0722,3.067,3.067,3.0669,3.0669,0,3.0778,3.0788,3.0761,3.0767,3.0777,3.0755,3.0765,3.0755,3.0745,3.0747,3.0724,3.0726,3.0702,3.0701,3.0686,3.0692,3.0691,3.0683,3.0679,3.0684,3.0685,3.0682,3.0678,3.0671,3.067,3.067,3.067,0,3.0829,3.0812,3.0819,3.0801,3.0797,3.0805,3.0789,3.0792,3.0779,3.0782,3.0781,3.0761,3.0758,3.0739,3.0733,3.0723,3.0734,3.0726,3.0737,3.0734,3.0748,3.0747,3.0801,3.0807,3.0752,3.0753,3.0753,0,3.0857,3.0864,3.0847,3.0847,3.084,3.084,3.0838,3.0816,3.0815,3.0802,3.0807,3.0803,3.0799,3.0796,3.078,3.0774,3.0765,3.0785,3.0764,3.0769,3.0764,3.0763,3.0763,3.0789,3.079,3.079,3.0791,0,3.0908,3.0899,3.0896,3.0891,3.0888,3.0883,3.0876,3.0877,3.0853,3.0852,3.085,3.0846,3.0839,3.0835,3.0826,3.0818,3.08,3.0797,3.08,3.0805,3.0811,3.0806,3.0747,3.0796,3.0795,3.0795,3.0795,3.0795,3.0947,3.0951,3.094,3.0937,3.093,3.0923,3.0925,3.0912,3.091,3.0903,3.089,3.0889,3.0877,3.0864,3.0856,3.0855,3.0844,3.0849,3.0849,3.085,3.0853,3.0812,3.0853,3.0853,3.0853,3.0853,3.0853,0,3.0995,3.0986,3.0984,3.0975,3.0973,3.0957,3.0948,3.0947,3.0946,3.0937,3.0933,3.0929,3.0924,3.0908,3.0901,3.0903,3.0894,3.0902,3.09,3.0898,3.0863,3.0861,3.0908,3.0908,3.0908,3.0908,3.0908,3.0908,3.102,3.1026,3.1015,3.1017,3.1008,3.1006,3.1002,3.0996,3.0988,3.0985,3.0981,3.0971,3.0958,3.095,3.0944,3.094,3.0937,3.0947,3.094,3.0907,3.0901,3.0896,3.0894,3.0947,3.0948,3.0975,3.0975,3.0975]}]]